Weather in Kochubey

Russia / Republic of Dagestan     44°23′31″N   46°32′45″E
temp.,
°C
wind,
m/s
gust,
m/s
humid.,
%
clouds,
%
prec.,
mm/h
press.,
hPa
HPBL,
m
9 may, sun
sun900:00+15ese6136473 0.0 1013413
03:00+14ese714740 0.0 1011437
06:00+15se61580100 0.0 1010574
09:00+20se81057100 0.0 1008947
12:00+23se894794 0.0 10071225
15:00+22ese76552 0.0 1006955
18:00+18e4476100 0.0 1007258
21:00+11wnw142075100 0.4 1013875
10 may, mon
mon1000:00+10wnw121879100 1.2 10171088
03:00+11wnw111573100 3.0 10171302
06:00+10wnw101570100 0.4 10181281
09:00+11w91357100 0.4 10201417
12:00+16wnw9113394 0.1 10182756
15:00+18wnw912263 0.1 10172808
18:00+16w783152 0.0 10181772
21:00+13w494269 0.0 1019211
11 may, tue
tue1100:00+11wnw355782 0.0 1019129
03:00+10nw336415 0.0 101958
06:00+11ne45645 0.0 1020227
09:00+15ene684912 0.0 10191205
12:00+17e8945100 0.1 10182004
15:00+18e994423 0.1 10181714
18:00+16ese66535 0.0 10191095
21:00+13se356996 0.0 101992
12 may, wed
wed1200:00+12ese337598 0.0 101945
03:00+12ese237819 0.0 101826
06:00+13ese23725 0.0 1018154
09:00+18e555420 0.0 10181321
12:00+19e555116 0.0 10181316
15:00+19e54531 0.0 10181034
18:00+18e44620 0.0 1018578
21:00+15se34760 0.0 101786
13 may, thu
thu1300:00+14sse23840 0.0 101750
03:00+13sse22887 0.0 101715
06:00+15se22835 0.0 1017119
09:00+20ese34621 0.0 1017752
12:00+22e65540 0.0 1017798
15:00+21e77550 0.0 1016658
18:00+19ese67620 0.0 1017510
21:00+16ese46724 0.0 1017160